GFSMA_prec_radar_114.txt.gz
Reflectivity
21 23 32 23 -10 -0 -1 15 -20 -20 -20 -20 -20 -20 -20 -20 -20 -20 -20 -20 -19 -17 -1 -2 -0 -3 -11 -20 -20 -20 -20 -20 -20 -20 -20 -20 -20 -20 -20 -20 -20 -20 -20
22 21 22 30 15 -12 22 3 -20 -20 -20 -20 -20 -19 -2 -11 -20 -20 -20 -20 -20 -20 -9 -2 -2 -20 -6 -5 -20 -20 -20 -20 -20 -20 -20 -20 -20 -20 -20 -20 -20 -20 -20
29 23 27 11 -3 -9 -13 -20 -20 -20 -20 -20 -20 -20 -20 -20 -20 -20 -20 -20 -20 -20 -16 2 -0 -20 -7 -17 -20 -20 -20 -20 -20 -20 -20 -20 -20 -20 -20 -20 -20 -20 -20
23 18 27 21 20 8 -20 -20 -20 -20 -20 -20 -20 -20 -20 -20 -20 -20 -20 -20 -20 -20 -20 -20 -3 -20 -20 -20 -20 -20 -20 -20 -20 -20 -20 -20 -20 -20 -20 -20 -20 -20 -20
32 28 23 22 18 3 -20 -20 -20 -20 -20 -20 -20 -20 -20 -20 -20 -20 -20 -20 -20 -20 -20 -20 -20 -20 -20 -20 -20 -20 -20 -20 -20 -20 -20 -20 -20 -20 -20 -20 -20 -20 -20
27 30 15 25 20 23 -20 -20 -20 -20 -20 -20 -20 -20 -20 -20 -20 -20 -20 -20 -20 -20 -20 -20 -20 -20 -20 -20 -20 -20 -20 -20 4 -3 -12 -20 -20 -20 -20 -20 -20 -20 -20
24 39 23 28 8 -7 -20 -20 -20 -20 -20 -20 -20 -20 -20 -20 -20 -20 -20 -20 -20 -6 -3 -20 -20 -20 -20 -20 -20 -20 -20 -20 2 11 9 8 -20 -20 -20 -20 -20 -20 -20
26 28 22 27 5 4 -20 -20 -20 -20 -20 -20 -20 -20 -20 -20 -17 -20 -20 -20 -20 -20 -20 -20 -2 -20 -20 -20 -20 -20 -20 -20 -20 -20 -5 -20 -20 -20 -20 -20 -20 -20 -20
33 24 26 10 15 4 1 -20 -20 -17 -19 -20 -20 -20 -18 5 11 -20 -20 -20 9 2 -2 -20 -20 -20 -20 -20 -20 -20 -20 -20 -20 -20 -20 -20 -20 -20 -20 -20 -20 -20 -10
34 27 26 9 1 3 -20 -20 -20 -20 -20 -20 -20 -18 -18 -19 -8 -20 -20 -18 -16 16 -12 -20 -8 -6 -16 -20 -20 -20 -20 -20 -20 -20 -20 -20 -20 -20 -20 -8 -4 11 -20
20 32 27 12 10 -7 -20 -20 -20 -20 -20 -20 -20 -20 -20 -20 -13 -20 -20 -19 -19 -16 -20 -20 -20 -20 -20 -20 -20 -20 -20 -20 -20 -20 -20 -20 -20 -20 -9 13 18 5 16
1 22 32 26 25 2 -6 -20 -20 -20 -20 -20 -20 -18 -20 -20 -20 -20 -14 21 -14 6 -18 -20 -0 -20 -20 -20 -20 -20 -20 -20 -20 -20 -20 -19 -2 -7 -5 -3 17 19 15
21 -4 7 17 17 3 -20 -20 -20 -20 -20 -20 -20 -20 -20 -13 -6 11 16 14 -2 14 -19 -9 -15 12 17 -6 -15 -20 -20 -20 -20 -20 -20 -20 -19 -20 4 -20 -20 -1 16
-12 5 7 6 24 22 -12 16 -19 -3 -15 -20 -20 -20 3 11 23 24 3 -5 5 20 4 -4 18 8 23 20 13 6 -20 -20 -20 -20 -20 -20 -20 11 21 22 27 20 19
-9 9 14 22 19 16 14 21 26 22 25 24 26 25 24 21 22 25 16 17 18 20 -15 -12 16 22 32 24 26 11 -10 11 -20 -20 -1 5 11 29 26 7 7 -0 8
-20 -3 31 30 38 33 3 21 24 12 25 30 35 36 36 34 34 32 33 30 26 15 4 -1 19 28 -11 -20 -10 -6 -7 7 6 -2 16 15 14 9 6 7 20 10 -11
-20 -5 30 30 32 27 19 28 35 27 31 25 33 34 34 33 33 33 31 27 21 23 14 6 29 14 -15 -20 -20 -17 11 -11 12 4 -8 -2 12 2 10 8 -11 5 -20
-18 -12 25 31 29 26 36 29 30 34 37 33 31 26 30 37 31 23 24 19 20 19 24 9 19 -7 -16 0 2 10 12 1 0 11 -0 -5 3 2 14 7 16 8 -12
10 -15 11 25 31 32 28 32 33 39 38 33 32 32 29 30 20 14 19 19 19 18 12 27 27 -5 3 4 28 17 2 23 23 -7 -6 3 11 1 -2 0 -20 -20 -20
6 13 15 -4 19 32 33 31 39 36 26 29 22 5 17 15 16 14 8 -4 -11 -20 -19 -18 1 23 24 16 13 13 26 22 14 -17 15 20 -3 -9 -20 -20 -20 -20 -20
-19 -10 5 15 16 18 28 27 34 24 32 24 6 24 11 -10 0 -8 -15 -20 -19 -20 -4 -3 13 7 -4 5 5 7 10 20 18 -5 11 18 -15 -20 -20 -20 -20 -20 -20
-15 -20 -12 -8 17 19 28 29 34 21 21 10 -3 -20 -20 -20 7 7 -20 2 7 10 -17 8 -6 -13 16 28 19 -7 -18 -20 -20 -20 -15 -3 -6 -20 -20 -20 -20 -20 -20
11 15 -5 -8 0 15 24 25 24 18 -10 -19 -20 -20 -20 -20 -1 -20 -2 1 6 12 6 -10 8 -13 4 6 -11 -17 -20 -20 -20 -20 -20 -20 -19 -20 -20 -20 -20 -20 -20
15 11 11 16 18 -0 18 8 3 -18 -16 -13 3 2 -19 -12 11 17 -6 7 4 -1 3 10 7 -5 -14 -20 -20 -19 -18 -13 -20 -20 -20 -20 -20 -20 -20 -20 -20 -20 -20
21 0 14 12 4 -15 17 15 9 9 9 5 9 10 14 10 21 14 3 -14 5 13 17 12 0 3 -19 -20 -19 -20 -20 -20 -20 -20 -20 -20 -20 -20 -20 -20 -20 -20 -20
13 17 19 5 22 2 14 19 18 9 15 8 5 10 17 17 18 11 -3 -3 15 17 12 6 12 14 15 12 5 -16 -15 -16 -20 -20 -20 -20 -20 -20 -20 -20 -20 -20 -20

GFSMA_prec_radar_117.txt.gz
Reflectivity
-7 -20 -5 -0 -9 -5 -20 -5 -6 -20 -20 -20 -20 -20 -20 -20 -20 2 -18 -11 -9 -20 -12 14 10 -3 -1 -20 7 -8 -3 -14 -15 -20 -20 -20 -20 -20 -20 -20 -20 -20 -20
-15 -14 -2 23 8 16 1 -20 -15 -9 -20 -20 -20 -20 -20 -20 -20 -1 -17 -20 -20 -20 2 16 15 14 -5 -2 -20 -20 -20 -8 -20 -20 -20 -20 -20 -20 -20 -20 -20 -20 -20
9 23 25 22 19 10 16 -0 6 -20 -20 -20 -20 -20 -20 -20 -20 -20 -20 -20 -20 -20 6 13 7 -2 -0 -13 -20 -20 -20 -19 -20 -20 -20 -20 -20 -20 -20 -20 -20 -20 -20
-8 -12 20 17 22 9 23 -7 11 -20 -20 -20 -20 -20 -20 -20 -20 -20 -20 -20 -20 -20 -5 -6 -6 -20 -19 -7 -20 -20 -20 -20 -20 -20 -20 -20 -20 -20 -20 -20 -20 -20 -20
2 -4 10 20 27 12 16 7 -20 -20 -20 -20 -20 -20 -20 -20 -20 -20 -20 -20 -20 -20 -20 -20 -20 -20 -20 -20 -20 -20 -17 -20 -15 -20 -20 -20 -20 -20 -20 -20 -20 -20 -20
1 5 17 33 24 11 -1 7 -20 -20 -20 -20 -20 -20 -20 -20 -20 -20 -20 -20 -20 -20 -20 -20 -20 -20 -20 -20 -20 -20 3 14 10 7 -18 -14 -20 -20 -20 -20 -20 -20 -20
12 9 40 28 29 32 5 4 -20 -20 -20 -20 -20 -20 -20 -20 -20 -20 -20 -20 -20 -20 -20 -20 -20 -20 -20 -20 -20 -20 -20 -20 16 14 9 8 1 -20 -20 -20 -20 -20 -20
-2 21 34 35 24 4 27 -15 -14 -20 -20 -20 -20 -20 -13 -19 -20 -20 -20 -20 -20 -20 -20 -20 -20 -17 -20 -20 -20 -20 -20 -20 -20 -20 -3 2 -4 -20 -20 -20 -20 -20 -20
-8 23 30 28 28 23 11 -19 -20 -20 -20 -20 -20 -20 -15 6 -20 -20 -20 -20 -20 -20 -20 -17 22 -9 -20 -20 -20 -20 -20 -20 -20 -20 -20 -20 -20 -20 8 -2 -20 -20 -20
-8 28 21 35 30 18 -6 4 -12 -20 -20 -20 -20 -20 -20 -20 -20 -4 -7 -18 -20 -20 -20 15 31 -20 -12 -20 -20 -20 -20 -20 -20 -20 -20 -20 -20 -20 -20 -20 -20 -7 16
6 9 32 33 33 23 2 -15 -15 -20 -4 -20 -20 -20 -20 -20 -20 -18 8 -20 -20 -20 -20 8 4 -20 -20 -20 -15 -18 -20 -20 -20 -20 5 -17 -20 -20 -20 -20 -18 7 10
8 16 24 32 30 21 -3 13 -20 -20 -20 -20 -20 -20 -20 -20 -20 -20 -20 -20 -20 -19 0 -20 -6 -20 -16 -19 -20 -20 -20 -20 -20 -6 -15 -20 -20 -20 -20 -9 -6 -12 7
12 -20 -6 30 34 33 2 14 -13 -20 -20 -20 -20 -20 -20 -20 -20 -20 -20 -20 -13 22 -5 7 -19 -14 8 -7 -9 -19 -20 -20 -20 -20 -20 -20 -20 -20 -20 6 2 -1 8
-5 -1 -8 4 32 31 30 16 11 -15 -20 -20 -20 -20 -20 -20 -20 -13 4 9 23 23 5 1 -7 -4 -8 -5 10 21 3 -2 -20 -20 -20 -20 -20 -19 -13 -18 3 -4 20
9 25 -12 -8 -7 13 31 28 9 -20 -16 -1 -20 -4 -17 -18 -5 -20 3 27 28 28 8 -5 -9 24 12 -4 14 16 -5 19 19 17 -9 -12 -12 -2 2 7 18 22 7
12 19 12 18 9 -6 1 3 -6 -5 -16 -18 4 9 13 18 17 16 25 23 25 20 5 4 24 16 13 16 13 6 -12 -11 7 6 9 5 -4 16 -2 6 -20 -20 11
-5 -3 19 27 29 40 22 3 10 -5 -1 -8 -0 16 27 25 30 28 29 31 24 24 22 24 25 10 27 17 28 2 5 -11 5 5 6 -5 -19 -13 -20 -4 -5 -5 10
-3 -20 -20 -7 31 40 29 35 33 25 11 -3 25 29 34 28 31 25 28 30 26 25 25 27 29 26 26 23 26 9 4 17 11 33 10 13 11 10 18 2 6 12 10
-20 -20 -20 6 18 27 26 25 32 26 33 32 33 30 32 23 9 18 29 26 24 24 23 23 26 24 23 24 26 6 18 31 1 26 17 0 13 4 -1 -0 4 1 -19
1 -11 -11 9 24 29 33 29 28 34 37 36 38 36 22 20 23 25 28 24 23 26 27 24 24 14 15 13 23 26 1 -6 7 -12 3 7 4 3 -12 -20 -20 -20 -20
11 5 6 -6 21 27 32 30 26 28 39 37 35 30 26 33 28 25 26 26 28 25 23 23 22 19 12 22 -2 18 -8 13 21 3 9 10 0 -20 -20 -20 -20 -20 -20
11 10 4 5 5 5 25 25 30 36 37 26 26 23 13 19 28 26 25 23 18 6 15 -6 15 12 20 22 -9 -13 2 -3 -8 -18 -13 4 -19 -8 -20 -20 -20 -20 -20
1 -1 6 -10 0 11 20 23 30 30 18 32 38 33 28 26 18 8 9 11 7 4 9 5 6 17 9 -1 5 4 1 -9 -18 -20 -20 -20 -20 -20 -17 -9 -20 -20 -20
5 -15 -2 -0 13 12 14 22 27 28 26 16 25 18 -6 9 4 -15 -20 -20 -9 10 8 2 -14 -16 -8 -2 6 4 -15 -5 0 -10 -20 -20 -19 -20 -20 -20 -20 -20 -20
15 13 15 14 4 -1 21 21 14 -6 -2 13 12 -19 -20 -9 19 6 -16 4 -1 2 21 17 -3 -6 -11 -5 6 12 7 13 13 6 -4 -19 -20 -20 -20 -20 -20 -20 -20
15 14 -6 3 21 11 21 26 19 17 19 14 1 11 18 9 20 0 -9 -9 3 -4 -9 -8 1 9 8 14 18 17 17 17 17 11 7 7 7 -4 -20 -20 -20 -20 -20

GFSMA_prec_radar_120.txt.gz
Reflectivity
13 -15 -16 -20 -14 6 27 5 14 14 -17 -10 2 -20 -20 -20 -20 -20 -20 3 6 -7 -1 10 14 12 -4 -20 -17 2 3 -20 -20 -20 -20 -20 -20 -20 -20 -20 -20 -20 -20
-7 -20 -20 29 30 31 21 2 2 -19 -17 -11 5 -1 -20 -20 -20 -20 -20 -13 -2 -20 12 4 4 -12 -20 -2 -11 -1 -20 -1 -20 -20 -20 -20 -20 -20 -20 -20 -20 -20 -20
25 -17 -16 13 -11 27 32 24 17 -20 3 -12 -5 -4 -20 -20 -20 -20 -20 -20 0 -20 11 8 -20 -20 -20 -19 -20 -20 -20 -20 -20 -20 -20 -20 -20 -20 -20 -20 -20 -20 -20
-14 -13 16 19 11 28 33 26 7 2 6 7 -0 -1 -20 -20 -20 -20 -20 -20 -20 -20 -20 -20 -5 0 2 -20 -20 -18 -20 -20 -20 -20 -20 -20 -20 -20 -20 -20 -20 -20 -20
16 0 10 -7 21 25 29 25 19 -4 8 -9 -3 -20 -20 -20 -20 -20 -20 -20 -20 -20 -20 -20 -7 -11 -11 -4 -11 -3 -4 -13 -20 -17 -15 -20 -20 -20 -20 -20 -20 -20 -20
-1 4 -3 5 19 22 30 21 26 -5 -17 -20 -20 -3 -20 -20 -20 -20 -20 -20 -20 -20 -20 -20 -20 -20 -20 -20 -20 -20 -16 6 -13 -17 -8 -13 -20 -3 -6 -20 -20 -20 -20
12 8 16 21 -3 16 31 30 12 5 -9 -4 6 -3 7 13 5 -20 -5 -20 -20 -20 -20 -20 -20 -20 -20 -20 -20 -20 -20 1 2 9 -17 -20 -20 -20 -20 -20 -20 -20 -20
11 12 14 7 23 22 23 30 23 18 -10 -16 -3 -16 12 10 -1 -9 -20 -20 -20 -20 -20 -20 -20 -20 -20 -20 -20 -20 -20 -20 -20 -20 -3 -20 -20 -20 -20 -20 -20 -20 -20
7 14 3 23 35 36 31 37 22 16 9 -11 -20 -20 -6 -15 -2 -2 -6 -20 -7 -20 -20 -20 -20 -20 -18 -19 -20 -20 -20 -20 -20 -20 -20 -20 3 13 3 13 -20 -20 -20
13 -4 -20 12 34 32 30 32 29 4 18 -20 -20 -20 -20 -20 -16 6 -2 5 -0 -5 -20 -20 -20 -20 11 -20 -20 -20 -20 -20 -20 -20 -20 -20 -20 -20 -20 -20 -20 -14 10
-19 3 -15 2 24 29 27 25 26 22 9 -20 -20 -20 -20 -20 -20 -20 -20 -20 -1 -20 -20 -20 -13 -6 -18 -20 -20 -20 -20 -20 -20 -20 -20 -20 -20 -20 -20 -20 -20 -16 -2
-2 -20 -10 17 32 35 26 22 21 31 -8 -20 -20 -20 -20 -20 -20 -20 -20 -20 -20 -20 -20 -12 13 -6 -20 -20 -20 -20 -20 -19 -17 -20 -20 -20 -20 -20 -17 -18 -8 -1 -1
-20 -20 -6 7 27 24 36 28 35 15 -7 -10 -20 -19 -14 -20 -20 -20 -20 -20 -20 -20 -20 2 19 -16 -20 -20 -20 -20 -20 -16 -20 -20 -20 -20 -9 -0 -5 8 2 5 7
1 -20 -4 -1 27 30 31 28 26 16 -4 -19 -20 -20 -20 -20 -20 -20 -20 -20 -20 -20 -13 20 16 -2 -13 -20 -20 -20 -20 -4 15 1 -20 -20 -18 -1 4 -1 0 -5 -2
-20 1 0 -4 4 23 32 31 26 21 -11 -19 -19 -20 -20 -20 -20 -20 -20 -19 4 12 16 25 17 -3 -12 -11 15 1 -19 -15 25 12 -10 19 12 5 -20 7 -14 -7 10
8 -1 24 16 -8 -18 9 34 30 13 16 14 -17 -14 -20 -20 -20 -20 -8 -7 -3 5 24 26 25 18 12 22 20 16 -6 26 -13 -20 -20 -14 0 -8 21 19 8 -9 -16
-11 10 15 21 29 16 11 -7 30 31 21 0 10 -20 -20 -20 -18 9 15 17 21 25 24 25 26 27 26 19 21 22 20 16 24 15 2 0 -16 -15 2 -12 14 -16 -20
8 6 -6 13 34 18 26 29 -18 3 19 11 -20 -3 -5 8 6 13 16 17 21 10 9 27 32 30 26 29 29 19 19 10 13 24 11 3 -17 -20 -16 -2 -12 -20 -20
-12 -7 6 3 2 13 24 38 31 16 -16 -20 -19 18 -7 11 23 31 8 12 14 24 26 34 31 24 27 20 29 18 18 14 12 26 15 11 7 4 -16 7 -1 -20 -20
-3 -3 3 -7 -20 16 30 28 30 27 21 24 33 30 31 28 34 34 14 7 19 19 28 28 26 29 20 17 14 9 3 16 -1 -1 11 18 11 7 -6 -4 -18 -20 -20
1 5 4 -20 -5 -7 21 22 27 34 34 36 38 32 33 36 34 29 14 6 17 16 27 22 27 22 22 19 22 13 3 -3 7 5 8 -14 -11 -11 -13 -18 -20 -20 -20
-6 -3 -2 -20 -20 10 22 32 31 32 33 32 34 32 35 31 34 30 20 24 28 24 26 29 29 22 20 23 20 11 13 5 -3 -9 -0 -1 -8 5 16 -11 -6 -4 -12
-20 -14 -20 -20 -19 -19 3 24 26 23 30 32 33 34 29 21 22 12 25 28 24 24 19 20 15 9 11 1 -4 5 9 -7 -20 -17 -7 8 -2 -11 1 13 17 16 12
-17 -7 -4 13 -12 2 -20 -9 11 20 28 14 22 31 30 31 25 29 29 21 21 18 6 -3 -8 7 8 3 -8 -13 -18 -8 -7 -20 -8 -4 9 -2 -6 -1 -12 -18 -18
-10 -14 -15 -14 -20 -13 17 -3 11 31 29 24 17 27 28 31 29 23 12 13 10 4 8 14 17 16 15 10 8 -4 5 12 7 -4 -18 -11 -13 -20 -20 -20 -20 -20 -20
-18 -20 -20 -19 15 -15 18 16 9 3 20 17 15 24 16 9 -10 -5 -17 -8 -20 -13 4 12 5 9 10 7 10 10 7 2 7 -1 -19 -20 -20 -20 -20 -20 -20 -20 -20

GFSMA_prec_radar_123.txt.gz
Reflectivity
-20 -16 0 -17 -20 -2 14 -16 -16 15 25 -20 -20 -20 -18 -20 -20 -20 -20 -20 3 -8 7 6 -20 7 -9 6 7 2 -20 -5 -18 -20 -20 -20 -20 -20 -20 -20 -20 -20 -20
5 -10 -20 -2 25 27 -5 9 24 8 19 -20 -20 -18 -20 -20 -20 -20 -20 -17 -15 -2 3 10 -1 -4 6 -2 2 14 -12 -11 -20 -20 -20 -20 -20 -20 -20 -20 -20 -20 -20
-0 -20 -20 -13 -20 8 33 33 34 27 15 -10 -20 -20 -18 -20 -20 -20 -20 -20 -20 -9 -4 -18 -16 6 -6 1 -20 -19 -20 -4 -6 -11 -20 -20 -20 -20 -20 -20 -20 -20 -20
5 30 0 4 -14 24 28 30 36 27 27 -19 -20 -14 -20 -20 -20 -20 -20 -20 -20 -20 -20 3 -20 1 8 -20 -20 -20 -20 -20 -20 -16 -20 -20 -20 -20 -20 -20 -20 -20 -20
3 11 4 -20 7 8 13 30 36 26 12 -20 18 6 -20 -20 -20 -20 -20 -20 -20 -20 -20 -20 -19 -20 -9 -20 -20 -20 -20 -20 -20 -10 -7 -20 -20 -20 -20 -20 -20 -20 -20
13 26 -0 -10 -12 -1 26 23 32 30 13 -20 9 -20 -20 -20 -20 -20 -20 -20 -20 -20 -20 -20 -20 -20 -20 -20 -20 -20 -20 -20 -20 -20 -15 7 -18 -20 -20 -20 -20 -20 -20
12 10 12 -9 -20 6 14 25 30 32 21 -20 -20 -10 -2 -18 -20 -20 -20 -20 -20 -20 -20 -20 -20 -20 -20 -20 -20 -20 -20 -3 -3 -20 -20 -20 -20 -20 -20 -20 -20 -20 -20
-12 12 12 -4 0 13 -11 2 35 32 25 1 4 -12 11 18 16 -20 -20 -20 -20 -20 -20 -20 -20 -20 -20 -20 -20 -20 -20 -20 -16 4 7 4 -20 -20 -20 -20 -20 -20 -20
1 14 11 2 -2 -1 21 -11 31 35 21 -2 25 -20 -3 8 -7 -20 -8 -20 -20 -20 -20 -20 -20 -20 -20 -20 -20 -20 -20 -20 -20 -20 6 12 -5 4 11 15 14 12 -0
2 6 12 -1 9 10 5 9 30 30 31 17 19 -6 -20 -20 8 12 -9 -20 -20 -20 -20 -20 -20 -20 -20 -20 2 -20 -20 -20 -20 -20 -20 -20 -20 -20 -20 -20 -17 -14 11
1 9 6 9 -2 16 11 15 23 32 23 23 -4 -15 -20 -20 -20 -20 7 1 -20 -20 -20 -20 -20 -20 -20 -20 6 -20 -20 -20 -20 -20 -20 -20 -20 -20 -20 -17 11 13 12
12 7 12 -2 -9 -20 10 24 31 28 28 34 23 -11 -20 -20 -20 -20 -16 -20 -7 -10 -20 -20 -20 -20 -20 -11 11 -7 -20 -20 -20 -20 -18 -16 -20 -16 9 8 12 12 13
-8 -14 2 -16 -12 -19 27 17 31 27 25 27 -1 3 -20 -20 -20 -20 -20 -20 -20 -20 -20 -17 -20 -20 -6 24 -4 -20 -20 -20 -20 -7 -6 3 2 8 8 8 9 9 9
-5 -1 -20 -20 -20 -20 24 25 22 31 29 27 24 20 -20 -11 1 -20 -20 -20 20 18 16 10 10 -20 -1 20 -20 -20 -20 -20 -20 -0 -19 8 -2 -16 -0 14 2 2 -6
-2 -4 -20 -20 -20 -20 20 28 30 34 35 31 33 31 -20 -19 1 -20 -20 -20 -5 -20 7 -18 -18 12 -6 -19 -20 -14 -20 -17 -10 13 -4 3 8 -16 -16 -18 4 12 6
-15 -20 0 -20 -20 -20 12 31 32 31 29 33 33 29 -7 6 -14 -19 -9 -20 -20 -20 -20 2 3 23 17 -2 -19 -19 -2 12 8 -12 -20 17 9 12 -5 -5 -16 -14 -6
11 14 -20 -19 -20 0 11 16 27 30 29 30 30 23 -20 2 6 11 -20 -20 -20 -9 15 -1 -4 2 -1 -3 3 -5 15 8 11 14 11 20 22 17 11 -20 -16 -20 -14
9 4 -15 -12 -8 -19 14 27 13 22 30 25 28 24 13 12 21 10 -20 -20 -19 9 -11 -13 10 11 8 -12 -3 1 10 4 10 23 12 21 18 23 13 6 -8 -20 -20
-16 13 -20 12 12 20 9 28 24 19 23 29 24 26 15 16 5 -20 -20 9 22 10 5 19 26 18 13 26 15 30 24 16 6 24 15 15 14 -1 -12 -20 -20 -20 -20
1 9 3 17 20 12 -5 -3 27 30 30 29 29 26 9 -17 -17 -13 1 14 26 20 26 23 19 19 17 9 26 21 18 10 11 13 18 13 12 7 14 -1 -6 0 -7
-4 -1 6 -9 1 -7 -8 3 -10 9 34 27 23 29 30 25 19 20 28 23 34 33 29 23 10 17 14 18 21 22 19 13 8 -2 15 1 3 8 1 -12 -20 -3 -5
7 -4 4 -17 -19 -20 -19 -3 2 23 27 34 26 18 15 28 33 35 36 33 35 27 26 18 4 13 18 22 20 21 19 13 10 -6 3 5 -4 -20 -20 -20 -20 -20 -20
-20 -20 -20 -20 -20 -20 9 1 26 27 27 30 32 33 31 32 31 36 34 35 27 25 19 18 21 15 18 25 19 0 -1 17 3 -6 -1 -3 -17 -4 8 2 -19 -20 -20
-20 -20 -20 -20 -20 -9 12 7 3 20 25 34 36 34 34 35 36 32 34 31 23 22 10 12 14 15 16 15 16 7 10 14 8 9 13 7 3 -5 -3 -10 -20 -20 -20
-20 -20 -19 3 -19 -18 10 6 14 -9 18 27 31 36 34 34 33 28 29 29 25 1 15 11 18 24 22 16 12 3 4 5 14 11 11 -10 -8 3 1 -4 -18 -20 -20
-20 -20 -20 -9 7 -19 8 12 -6 -20 -18 -1 7 19 29 30 29 27 7 2 19 19 22 24 17 8 11 9 14 13 3 7 6 2 -1 -6 -13 -20 -20 -20 -19 -20 -20

GFSMA_prec_radar_126.txt.gz
Reflectivity
-20 -20 -14 -20 -20 -19 -20 -20 -20 -16 -13 -18 -12 -20 -20 -20 -20 -20 -20 -20 -20 -14 13 18 14 6 -20 0 -15 -17 -20 -20 2 -15 -20 -20 -20 -20 -20 -20 -20 -20 -20
-20 -20 -12 -20 -20 -20 -20 -16 -19 -2 -0 15 30 -20 -20 -20 -19 -20 -20 -20 -20 -20 2 17 7 -4 -20 -20 1 -20 -9 1 -13 -8 -20 -20 -20 -20 -20 -20 -20 -20 -20
2 -20 -20 -20 -20 -20 -20 28 32 30 31 34 25 -20 -20 7 -19 -20 -20 -20 -20 -20 -10 -16 6 -0 -20 -20 6 3 0 -20 -20 -20 -20 -20 -20 -20 -20 -20 -20 -20 -20
-20 -20 -20 -8 -20 -14 7 27 28 31 35 24 19 -9 -20 -10 -20 -20 -20 -20 -20 -20 -20 -20 -20 -8 -12 8 -1 -4 -3 -20 -20 -20 -20 -20 -20 -20 -20 -20 -20 -20 -20
-20 -20 -20 -20 -20 -20 -11 -11 19 35 19 23 23 31 -20 -18 -20 -20 -20 -20 -20 -20 -20 -20 -20 -20 -20 -15 -3 -3 -10 -20 -20 -20 -20 -20 -20 -20 -20 -20 -20 -20 -20
6 3 -20 -3 -20 -20 10 -20 2 10 38 35 27 12 -19 10 -20 -20 -20 -20 -20 -20 -20 -20 -20 -20 -20 -20 -20 -20 -20 -20 -16 -20 -20 -20 -20 -20 -20 -20 -20 -20 -20
-1 14 3 -11 -20 -20 -20 -20 15 4 3 37 32 21 -10 1 -20 -20 -20 -20 -20 -20 -20 -20 -20 -20 -20 -20 -20 -20 -20 -15 -20 -20 -20 -20 -20 -20 -20 -20 -20 -20 -20
-9 9 -5 -18 -17 12 -9 3 -2 21 -20 31 34 11 14 23 -8 -19 -20 -20 -20 -20 -20 -20 -20 -20 -20 -20 -20 -20 -20 -20 -15 14 1 -20 -20 -20 -20 -20 -20 -20 -20
3 20 2 -12 -5 9 7 -20 -20 -18 0 13 33 3 -4 -15 0 -6 -20 -20 -20 -20 -20 -20 -20 -20 -20 -20 -20 -20 -20 -20 -20 6 -1 9 7 7 7 11 11 10 11
9 14 6 -7 -16 10 -10 -7 18 -18 8 -3 31 29 -20 -10 -20 9 -8 -20 -3 -20 -20 -20 -20 -20 -20 -20 -20 -20 -20 -20 -20 -20 -20 -20 -20 -20 -20 -20 -20 -20 -3
-10 3 2 6 -14 0 -6 -17 -11 -16 18 15 14 15 -9 -20 -20 -20 -20 -20 2 -20 -20 -20 -20 -20 -20 -20 -20 -5 -20 -20 -20 -20 -20 -20 -20 -19 -2 3 9 11 14
10 10 -13 12 -20 -20 0 -14 -19 -8 7 19 25 27 14 7 -20 -20 -20 -20 -20 -11 -20 -20 -20 -20 -20 -20 -20 14 -14 -20 -20 -20 -20 -20 -14 -6 13 16 9 7 6
10 -20 5 1 4 -20 -20 -13 4 25 35 20 22 9 23 -6 -20 -20 -20 -20 -20 -20 -20 -20 -20 -4 -20 -20 -20 -19 9 -20 -20 -20 -12 -1 -11 -12 4 7 -1 -1 -6
-18 -2 -16 5 -6 -20 -20 8 6 25 28 26 28 15 29 -1 13 -20 -20 -20 -20 -13 -9 12 -20 -20 -20 -20 -20 -20 -19 -20 -20 -20 -20 -16 -11 11 -6 15 3 -2 -20
-20 -20 -20 -15 -20 -20 -20 -20 -20 2 26 28 32 22 29 27 -20 -7 -16 -20 -20 -20 6 -20 -18 -17 -20 -20 -20 -1 -20 -19 -11 -6 -10 -4 -20 -13 5 9 -4 2 11
-20 -20 -18 4 -20 -20 -20 -20 -15 18 27 30 26 27 30 32 28 -18 -12 -9 2 4 -2 -4 13 -20 -20 -20 9 22 -12 -6 -11 -12 -5 9 -7 16 14 -3 9 14 17
-15 -20 -20 -17 -20 -20 -20 -20 -7 14 30 31 33 28 31 28 35 -5 -20 -20 -16 15 13 -20 -20 -20 -20 -19 -15 -20 -20 -20 -4 6 6 15 9 12 10 16 14 16 3
-20 -20 -20 -20 -20 -20 -20 -20 15 -10 24 29 30 34 33 29 33 20 -20 10 24 20 -20 -8 -20 -20 -4 -5 1 -12 -1 11 -18 20 10 11 13 9 6 11 12 19 -6
13 2 -20 -20 -20 -20 -19 -20 -20 -20 9 28 28 31 32 34 30 31 10 12 23 16 9 -20 -20 -20 -20 -20 -11 -4 -20 -11 12 25 20 14 13 3 17 14 0 -13 -4
5 16 -12 -20 -20 -20 -14 1 1 -20 -20 -2 24 30 30 33 34 28 27 32 19 23 3 -2 -20 -20 -18 -0 -19 -16 -11 -3 16 14 20 21 17 15 6 6 3 7 4
-6 10 13 13 14 -4 -10 -20 -15 -20 -15 -4 10 19 32 32 34 31 24 22 15 -13 14 23 7 -2 13 10 11 -16 4 18 17 15 14 15 7 8 -5 12 7 7 -2
4 12 -7 -20 -20 -19 16 12 -8 4 -14 -15 -4 26 33 32 30 27 18 26 -2 12 17 26 31 28 22 18 8 8 16 18 12 23 20 2 1 7 6 0 12 -20 -20
-13 1 -6 -20 -20 -20 18 21 24 8 9 15 26 29 25 24 26 27 32 31 26 35 31 30 27 22 26 14 21 20 14 15 9 2 17 11 4 2 0 -6 -20 -20 -20
1 13 -16 -10 -20 -10 9 11 8 -20 -19 20 29 28 27 31 33 33 33 35 36 35 32 23 24 30 26 25 17 7 7 7 19 6 6 7 7 -3 -6 -15 -20 -20 -20
12 17 4 -14 -20 -19 6 7 14 -20 -20 3 30 33 31 35 38 37 35 36 35 31 30 26 30 30 27 22 14 13 26 14 12 12 10 9 11 -3 -20 -20 -20 -20 -20
14 20 13 8 9 -20 7 11 18 -5 -20 -20 -3 16 29 31 32 33 30 32 30 28 24 26 24 15 15 18 20 6 3 -4 4 18 12 3 4 -20 -20 -20 -20 -20 -20

GFSMA_prec_radar_132.txt.gz
Reflectivity
-20 -20 -20 -20 -20 -20 -20 -20 -20 -20 -20 -20 -20 -20 17 -12 -20 -20 -20 -20 -20 5 3 -10 2 16 7 3 1 4 -1 -2 4 7 4 -20 -13 -20 -20 -20 -20 -20 -20
-20 -20 -20 -20 -20 -20 -20 -20 -20 -20 27 22 18 23 12 -0 -17 -20 -20 -20 -20 -20 -3 -8 9 16 7 6 -9 -3 1 5 7 -14 1 -20 -9 -20 -20 -20 -20 -20 -20
-20 -20 -20 -20 -20 -20 -20 -20 -20 -20 -19 10 30 32 26 23 -4 -20 -20 -20 -20 -20 -20 -10 6 17 8 2 -17 2 3 8 -2 -19 4 -20 -20 -20 -20 -20 -20 -20 -20
-20 -20 -20 -20 -20 -20 -20 -20 -20 -20 -20 -20 -3 6 -9 23 21 -20 -20 -20 -20 -20 -20 -20 6 10 7 5 5 4 1 6 4 -2 -2 -20 -20 -20 -20 -20 -20 -20 -20
-20 -20 -20 -20 -20 -20 -20 -20 -20 -20 -20 -20 -20 -4 1 22 23 -20 -20 -20 -20 -20 -20 -20 9 9 8 8 6 3 -3 7 13 -1 -20 -20 -20 -20 -20 -20 -20 -20 -20
11 14 12 13 -20 -20 -10 -4 -20 -4 -16 -20 5 -2 8 19 17 -20 -20 -20 -20 -20 -20 -20 -5 -8 -20 -20 -1 6 8 2 2 -11 -14 -20 -20 -20 -20 -20 -20 -20 -20
13 16 12 9 -4 -18 -20 32 -20 -20 -20 -5 -10 10 9 21 19 6 3 -20 -20 -20 -20 -20 -20 -20 -20 -20 -3 4 14 3 5 14 13 -20 -20 -20 -20 -20 -20 -20 -20
-20 3 -13 31 19 13 5 -17 -6 15 -20 -19 -12 -4 22 22 15 2 -10 -7 -20 -20 -20 -20 -20 -20 -20 -20 -20 -15 6 18 13 18 -17 -20 -20 -20 -20 -20 -20 -20 -15
-20 14 -20 -19 -10 32 -16 -4 11 6 14 11 -19 -19 6 22 13 24 15 -3 1 -20 -20 -20 -20 -20 -20 -20 -20 -20 -20 11 5 -16 -20 -20 -20 -6 -5 -4 7 -7 -20
-17 28 19 12 28 -7 -20 9 15 13 12 11 -18 -20 -20 -20 -20 -17 -7 20 -9 -20 -20 -20 -20 -20 -20 -20 -20 -20 -20 -20 6 13 13 11 13 2 6 -20 -20 -20 -5
13 17 17 17 13 10 13 10 13 20 9 12 4 -8 -20 -20 -20 -20 -19 0 26 -20 -20 -20 -20 -20 -20 -20 -20 -20 -20 -20 -20 -20 -20 -20 -20 -20 -20 -20 -19 6 14
18 17 10 16 19 20 15 3 18 19 12 -2 7 8 -15 -17 -20 -20 -20 8 30 0 -20 -20 -20 -20 -20 -20 -20 -20 -20 -20 -20 -20 -20 -20 -20 -20 -14 9 7 5 15
7 16 16 5 16 17 5 11 0 15 15 3 -11 6 -10 -5 -8 -18 13 8 29 17 -20 -20 -20 -20 -20 -20 -20 -20 -20 -20 -20 -20 -20 -20 -19 11 5 1 11 12 3
-3 13 15 17 14 18 17 26 13 15 -2 2 16 4 -11 21 20 16 26 7 -7 20 -11 -20 -20 -20 -20 -20 -20 -20 -20 -20 -20 -20 -20 9 -10 -11 -20 6 -18 13 7
17 -9 7 6 12 13 20 5 16 4 -4 15 -4 -17 -2 4 20 17 32 17 20 4 -19 -20 -20 5 -1 -13 2 -20 -20 -4 -20 9 -20 6 -1 -6 -13 24 10 12 13
-9 7 11 14 17 21 30 24 13 -2 2 11 -5 -16 15 12 30 32 33 28 30 16 13 -20 -12 3 -20 -10 7 -20 -10 9 3 -12 7 4 -13 -20 16 7 17 -15 -3
26 18 5 -1 2 21 27 13 5 11 9 18 18 11 22 8 28 32 26 28 24 23 21 -12 1 -3 -20 -13 -2 -19 4 -20 -6 6 3 20 -20 -10 16 12 -3 -2 7
14 19 7 -16 -14 6 12 9 9 14 -2 -7 -3 24 10 14 37 29 23 24 22 26 -6 -20 -1 -2 -20 -14 0 -4 21 17 20 4 15 29 -9 16 23 20 17 10 -3
-6 14 28 -6 -15 -1 -20 20 -13 -11 -0 -7 -3 -14 0 0 31 33 36 25 27 29 13 -20 1 -18 -5 -4 1 27 14 30 24 15 15 39 22 26 18 26 14 12 -18
11 22 15 26 -3 -4 -20 -20 -12 -15 -20 -12 -4 -10 -11 3 21 32 35 34 35 28 26 9 24 7 6 14 14 14 35 24 22 23 34 29 28 24 27 26 22 -13 8
-6 14 26 24 21 -19 11 -20 9 14 -4 8 -20 -10 -18 8 21 30 29 35 33 28 31 24 14 10 27 18 23 23 24 25 10 3 18 33 23 26 27 25 13 9 -5
-20 12 17 28 -9 -9 14 11 -9 -20 -20 -20 -20 -20 -15 14 0 -16 27 27 33 26 23 20 25 -5 20 34 31 30 29 14 20 11 24 24 19 19 17 11 17 1 -20
-2 -15 10 11 24 17 12 1 1 -20 2 -20 -20 -18 -13 -20 19 -7 17 30 28 30 31 29 10 -2 25 19 27 33 26 23 25 19 23 26 22 16 9 4 8 -10 -20
-15 -20 -2 22 49 25 14 -6 10 -4 -3 -14 9 -7 -20 -14 12 12 36 24 31 30 31 28 28 32 31 29 29 27 31 34 31 28 29 26 14 7 7 -1 -9 -19 -20
-15 -7 4 -3 26 -4 8 -4 6 -19 -18 -20 15 -13 -0 25 22 16 34 30 36 35 29 27 33 32 32 32 29 31 30 30 31 31 30 20 10 9 -6 -20 -20 -20 -20
-20 -20 -3 25 -19 -6 12 0 -6 -20 -13 5 15 15 14 16 22 11 18 29 27 35 27 27 32 32 29 29 33 25 32 29 30 22 17 15 9 -17 -18 -20 -20 -20 -20

GFSMA_prec_radar_138.txt.gz
Reflectivity
-13 -20 -20 -20 -20 -20 -20 -20 -20 -20 -20 -20 -20 -20 -17 -17 19 21 19 -15 -20 -20 6 -1 -14 12 2 -0 10 13 12 8 11 12 11 13 3 -17 -20 -20 -20 -20 -20
-6 -20 -20 -20 -20 -20 -20 -20 -20 -20 -20 -20 -20 -20 -18 11 8 26 21 30 -18 -20 -20 -7 -16 15 -10 9 15 15 13 5 14 13 18 16 -3 -20 -20 -20 -20 -20 -20
-11 -20 -20 -20 -20 -20 -20 -20 -20 -20 -20 -20 -20 -20 -20 -5 22 24 20 28 -20 -18 -18 -19 8 2 14 12 12 14 15 16 11 13 7 1 -20 -20 -20 -20 -20 -20 -20
-20 -2 -15 -20 -20 -20 -20 -20 -20 -20 -20 -20 -20 -20 -20 -20 -20 21 9 -20 -18 -20 -20 -5 -2 7 5 14 9 11 15 12 18 9 -1 -20 -20 -20 -20 -20 -20 -20 -20
-13 4 -5 -13 -20 -20 -20 -20 -3 -20 -20 -20 -20 -20 -20 -5 -6 0 21 14 6 5 -20 -20 -20 -12 15 -18 9 16 14 13 14 -2 -20 -8 -20 -20 -20 -20 -20 -20 -20
0 6 -8 -3 -5 6 -20 3 -1 -15 15 -20 -20 -20 -20 -20 -20 9 17 19 23 19 -20 -20 -20 -19 -1 13 -3 16 16 13 13 12 -0 -19 -18 -20 -20 -20 -20 -20 -20
-20 -20 -20 2 0 13 0 -7 -10 -20 28 14 -20 -20 -20 -20 -20 6 16 1 5 -16 -20 -20 -20 -20 0 9 6 -10 9 15 12 14 4 -6 -20 -20 -20 -20 -20 -20 -20
-8 10 -19 6 -5 22 -10 -20 -7 3 23 29 -19 -20 -20 3 -11 -20 -20 -20 21 4 -20 -20 -20 -20 -20 -20 -16 16 16 15 12 8 -20 -6 -20 -20 -20 -20 -20 -20 -20
22 -14 -6 10 7 -5 13 10 -12 31 20 10 4 -20 -18 -20 -8 -20 -20 -16 -17 -6 -20 -20 -20 -20 -20 -20 -20 -20 12 14 13 -6 -20 -20 -20 -20 -20 -20 -20 -8 9
1 -1 11 17 -4 9 13 3 28 15 18 15 -8 1 -18 -20 -20 -19 -20 -18 -3 -20 -20 -20 -20 -20 -20 -20 -20 -20 -20 10 8 7 -10 -20 -20 -20 -20 -20 -1 12 11
2 -0 20 5 -11 -6 4 17 -14 20 -12 -9 -20 -13 -19 -20 -20 -20 -20 -20 -18 25 -11 5 16 -20 -20 -20 -20 -20 -20 -20 -3 13 2 -20 -2 -20 -20 16 13 11 15
-6 -0 12 -3 -10 -2 -2 4 -2 6 11 7 -15 -8 2 -20 -20 -20 -20 -20 -11 -20 10 0 -17 -18 -20 -20 -20 -20 -20 -20 -19 -20 9 -9 9 13 -10 10 11 9 4
-20 -6 15 6 12 5 4 11 1 -17 6 4 34 4 -5 -15 -20 -20 -20 -20 -20 -13 -20 -3 13 12 -15 -20 -20 -8 -8 -20 -20 -20 10 11 14 15 -6 -6 3 1 12
-20 25 -19 -3 -19 -16 1 18 21 17 -4 17 8 -12 10 -20 -13 -15 -8 -20 -20 -20 -20 -20 25 29 15 5 -20 -20 -9 -11 -20 -20 -17 -16 9 15 11 -4 -12 12 10
-20 -11 -9 -20 -11 -20 -20 15 15 13 -19 8 6 -1 8 -17 -7 11 -20 -20 6 1 -20 -20 33 11 11 20 -20 -20 2 -5 -20 -20 -20 3 7 10 6 10 10 5 -4
-20 -20 -20 -20 7 -10 -20 -8 28 -16 -3 15 -5 4 13 20 -20 -13 -20 -20 -20 21 5 -20 -7 31 23 24 -20 -20 -20 -20 -20 -20 -20 -20 -20 -18 -3 6 2 -1 5
-20 1 -16 -20 -14 -6 5 -10 -19 8 -9 -8 8 13 12 27 0 6 -13 -14 -1 -12 3 5 20 39 27 30 10 -20 -20 -20 -20 -20 -20 -19 -20 -17 -6 -1 4 -18 27
-20 -19 -16 -15 -1 1 -9 31 16 -4 -2 11 16 14 21 14 -18 1 -16 -5 -19 -20 23 32 24 37 29 33 27 3 -20 -20 -20 17 9 7 -19 -2 15 19 17 13 22
-20 -16 -19 -20 3 7 16 -16 -7 6 5 9 19 2 22 27 -20 -19 -10 13 -16 19 25 25 16 16 28 29 29 29 -7 -20 -0 16 16 17 16 17 16 16 16 17 25
-20 -20 -20 -20 -20 10 -2 18 21 20 3 13 10 16 24 6 -6 -13 17 15 10 16 30 12 24 13 26 28 29 29 23 10 -12 3 14 23 22 17 19 15 25 24 21
-20 -20 -20 -18 -18 -14 8 -17 -3 2 -4 11 -16 1 2 12 11 8 11 -3 6 -10 5 10 20 20 27 26 27 26 25 18 21 2 19 24 10 4 11 28 35 28 22
-20 -20 -20 -20 -19 -19 18 20 6 7 28 -10 -20 -20 -15 -20 -0 -6 0 5 -10 -2 -7 1 11 13 25 24 26 34 30 30 27 18 26 28 12 5 27 32 34 31 20
-20 -20 -20 -20 -20 -20 5 11 13 13 21 30 -7 -20 -20 -20 6 -20 17 9 11 20 -11 -20 -15 8 31 23 24 33 33 31 26 28 30 27 12 8 23 31 26 28 25
-20 -20 -20 -20 -20 -20 -20 -13 13 -2 20 16 27 -2 -20 10 8 -11 15 15 11 7 4 -6 -19 -10 7 38 33 27 34 35 32 35 27 19 15 30 29 30 31 26 12
-20 -20 -20 -20 -20 -20 -20 -19 12 17 15 10 18 44 14 15 17 -1 11 18 -9 6 22 13 17 16 15 29 33 34 35 32 27 28 20 26 30 31 28 27 27 21 14
-20 -20 -20 -20 -20 -20 -20 -20 0 -11 21 -1 0 36 13 12 15 6 2 21 -20 -20 -3 10 13 19 20 27 29 31 38 33 30 30 30 23 32 32 30 26 20 16 15

GFSMA_prec_radar_141.txt.gz
Reflectivity
-20 -20 -20 -20 -20 -20 -20 -20 -20 -20 -20 -20 -20 -20 -20 -20 -4 -1 23 12 35 12 -20 -20 11 -19 -16 -8 -3 1 6 7 -6 12 3 12 -4 -8 -20 -20 -20 -20 -20
-20 -20 -20 -20 -20 -20 -20 -20 -20 -20 -20 -20 -20 -20 -20 -20 -20 11 9 24 25 2 -20 -20 -20 20 -20 -20 -1 -20 13 12 9 9 10 6 -5 -20 -20 -20 -20 -20 -20
-1 -20 -20 -20 -20 -20 -20 -20 -20 -13 -20 -20 -20 -20 -20 -20 -20 -11 1 -1 26 12 -20 -20 -20 5 8 4 -20 -20 13 15 7 12 9 14 -6 -20 -20 -20 -20 -20 -20
4 -20 -20 -20 -20 -20 -20 -18 -20 -20 -19 -20 -20 -20 -20 -20 -20 -20 -19 23 28 -16 1 18 -20 21 -1 -19 -14 -0 -15 -8 13 9 7 12 -2 -20 -20 -20 -20 -20 -20
-5 -11 -20 -5 -20 -20 -20 -20 -4 -20 -20 -5 -20 -20 -20 -20 -20 -18 -13 9 -20 -20 -11 -20 -20 -20 -5 9 -20 -12 -17 -12 15 1 2 -19 -4 -20 -20 -20 -20 -20 -20
3 7 -20 -20 -20 -13 -20 -1 -20 -2 4 -4 -9 -20 -20 -20 -20 -20 -20 -10 16 -7 23 13 -20 -20 -20 -12 12 -20 -20 -20 7 -0 -19 -20 -20 -20 -20 -19 -20 -20 -20
-6 5 3 -8 -20 -20 -19 -20 -20 -18 -20 1 -17 5 2 -1 -20 -20 -20 -11 25 -16 8 27 -20 -20 -20 0 14 12 -12 13 10 13 -18 -19 -5 -20 -20 -20 -20 -20 -20
-13 -20 3 -20 -15 -14 -14 9 6 -20 -11 -11 12 2 -20 -3 1 -7 -2 -3 -20 8 -4 -16 -20 -20 -20 -20 -16 4 -4 15 14 10 -12 9 4 -20 -20 -18 -20 -20 -20
12 1 -9 1 1 28 14 11 10 -18 -16 -8 24 21 -15 -20 -2 -2 -4 -1 -10 -20 13 -17 -6 -20 -20 -20 -4 -3 11 10 12 -12 -17 7 -13 -20 -20 -20 -20 -20 -12
5 29 15 27 -1 22 21 9 7 11 8 -8 10 -2 -8 -20 -20 -13 2 2 -20 -8 7 -5 -20 -20 -20 -20 -20 -10 -20 7 7 -7 11 4 -20 -20 -20 -20 -20 -0 15
-20 -20 13 47 37 34 25 4 0 3 7 16 -20 -16 -20 -20 -20 -20 -13 -16 6 -13 -20 -20 -14 -20 -20 -20 -20 -20 -20 -20 9 9 -14 8 -20 -20 -17 -20 -20 17 4
6 -0 13 11 4 22 20 -4 -1 -9 14 14 -19 4 -20 -20 -20 -20 -20 -20 -20 2 -20 -20 -20 -20 -20 16 -20 -20 -20 -20 -20 5 -3 8 -14 -20 -5 -20 22 13 12
29 12 4 2 7 23 12 15 20 -11 -2 15 9 -3 -20 -20 30 4 -11 -20 -20 -2 -2 -6 -16 -9 17 6 -14 -20 -20 -20 -5 4 -15 -19 -17 -20 -11 -15 18 -11 9
-1 8 -16 -9 13 -3 -6 -4 16 -3 17 18 14 10 -10 5 -11 8 3 0 -20 -0 -20 -20 -14 -6 -17 24 16 -14 -20 -20 -20 -8 -20 -20 -20 -20 -20 9 10 -2 10
5 14 11 11 -12 16 -6 18 17 -5 11 1 5 -15 5 28 13 32 -5 -20 12 -8 -20 -20 -20 -20 -20 -5 28 27 -1 -19 -4 -20 -20 -20 -20 10 -16 11 9 -7 -5
-9 -20 -20 0 0 5 -8 24 10 -0 -8 -6 8 -8 8 17 -6 -20 0 -20 2 14 1 -20 -20 -20 -20 -20 12 -0 21 12 6 -20 -20 -20 -20 -6 9 1 0 -10 -12
-20 -20 -20 -5 5 11 5 20 19 4 11 -9 26 -13 -5 28 -4 26 -8 9 2 8 -1 -20 -20 -15 -13 -20 12 28 22 18 3 -9 -20 -20 -20 -6 3 -0 4 3 1
-20 -20 -20 -20 -20 15 5 6 20 1 11 2 -20 -16 -2 -2 28 14 6 17 15 4 1 -20 -20 -20 -20 28 25 27 23 18 -7 -20 -20 -20 -20 -20 -20 -8 6 10 -3
-20 -20 -20 -20 -20 -20 -15 15 2 9 20 -14 -12 -0 -17 -9 -2 -3 -11 20 -6 -12 -20 -20 -20 -6 10 24 26 28 30 23 4 9 1 -16 -15 -2 9 13 13 10 20
-20 -20 -20 -20 -20 -20 -20 -9 24 17 6 1 -2 3 -6 -9 -2 -12 -20 24 5 -18 -20 -7 -1 1 -9 -20 8 29 23 30 27 7 19 19 19 18 18 19 13 13 15
-20 -20 -20 -20 -20 -20 -20 -20 -16 16 12 21 17 21 7 14 19 22 16 17 -16 -6 0 4 3 12 -9 -15 -4 22 26 31 30 29 23 -0 7 12 23 21 17 14 14
-20 -20 -20 -20 -20 -20 -16 -10 -20 -19 -2 7 25 26 -2 16 15 8 11 -2 -6 2 3 -0 -8 9 -11 -20 -5 31 30 34 36 35 36 26 7 22 32 9 25 13 17
-20 -20 -20 -20 -20 -20 -7 -20 -20 -20 -20 -2 17 18 14 -9 16 5 5 12 12 22 -14 -20 -5 -7 -20 -20 -20 24 32 29 24 22 33 35 34 28 33 25 20 12 16
-20 -20 -20 -20 -20 -20 -14 -9 -20 -20 -20 -10 6 17 19 33 28 -12 8 22 17 -12 0 -5 -20 -20 -20 -20 -20 -11 25 35 35 36 35 37 33 25 26 34 28 22 30
-20 -20 -20 -20 -20 -20 -20 3 -18 -20 -20 -3 7 24 21 18 37 25 9 19 18 16 4 16 17 -4 -6 -0 10 9 14 23 28 28 32 31 30 29 25 32 29 27 27
-20 -20 -20 -20 -5 -20 -20 -18 -15 -20 -20 -20 9 7 23 17 24 37 -11 3 17 18 -13 -0 5 20 10 9 18 -17 -10 21 26 31 33 31 28 28 31 31 33 26 29

GFSMA_prec_radar_147.txt.gz
Reflectivity
-13 -20 -20 -20 -20 -20 -20 -20 -20 -20 -20 -20 -20 -18 -19 -20 -4 -20 -20 -20 -16 -5 4 27 33 13 -10 -20 -5 -17 -20 6 1 -20 11 12 8 11 3 -3 -20 -20 -20
5 -20 -20 -20 -20 -20 -20 -20 -20 -20 -20 -20 -20 -18 -20 -4 -17 -20 -20 -20 -20 4 19 28 28 -4 21 -4 -20 -20 -20 6 -3 -20 -5 11 8 10 -1 -20 -20 -20 -20
-19 -20 -20 -20 -20 -20 -20 -20 -20 -20 -20 -20 -20 -20 -17 -8 -7 -20 -20 -20 -20 -18 4 -19 29 8 -2 10 -20 -20 -20 -20 9 -19 -8 7 10 7 -7 -20 -20 -20 -20
-19 -20 -20 -20 -20 -20 -20 -20 -20 -20 -20 -20 -20 -19 1 -20 -16 -9 -20 -20 -20 -20 -20 -20 -20 -20 -14 24 -20 -20 -20 -20 -4 -11 5 -2 6 -3 -10 -20 -20 -20 -20
-18 -11 -20 -20 -20 -20 -20 -20 -20 -20 -20 -20 -15 -20 -18 -20 -20 -20 -20 -20 -20 -20 -20 15 -16 -20 -20 1 -20 -20 -20 -20 -20 -20 -20 -3 0 -14 -20 -20 -20 -20 -20
-3 -2 -20 -20 -20 8 -20 -20 -20 -20 -1 -20 -20 -20 -20 -20 -20 -20 -13 -14 -20 -20 -20 -5 27 23 -20 -20 -20 -20 -1 -20 -14 -2 -16 -20 -20 -14 -20 -20 -20 -20 -20
-9 -20 7 -20 0 3 -20 -13 3 1 5 -20 -20 -12 -0 -20 1 1 -20 -20 -20 -20 -20 -20 7 16 -15 -20 -20 -5 9 6 -20 -20 7 -20 -20 -20 -20 -20 -20 -20 -20
9 -16 8 3 6 7 13 4 3 7 12 8 6 26 14 -12 -16 -7 -15 -15 5 -20 -20 -20 26 -7 19 -12 -20 -1 7 3 -16 -17 8 -20 -20 -20 -20 -20 -20 -20 -20
-8 -20 13 13 8 15 13 2 -20 -11 9 -17 18 -18 -6 -20 3 -5 1 -20 -7 9 -20 -20 -17 7 25 -18 -1 -20 -20 -20 -20 -20 3 -20 -20 -19 -20 -20 -20 -20 -20
-4 8 8 14 16 16 14 11 -2 -20 -14 -3 26 27 26 -14 20 18 1 -20 0 -8 -15 -6 6 11 13 -20 -15 -20 -0 -20 -19 -20 -14 -20 -20 -20 -20 -20 -20 -20 -20
-5 11 16 13 19 33 14 6 12 -2 -20 -3 35 26 -3 1 24 26 23 -6 -18 -17 15 -4 8 9 -19 -20 9 15 -14 -20 -20 -7 11 0 -20 -20 -20 -20 -20 -20 -20
6 12 12 0 -6 9 16 29 -1 10 25 -12 -1 3 28 12 19 24 22 21 -20 -20 -1 -11 10 2 3 -8 1 20 -19 -20 -20 -20 -20 -11 -20 -20 -20 -20 -20 -20 -20
13 -14 8 -3 10 32 19 29 39 21 13 7 9 4 26 19 23 17 24 -19 21 14 -20 -3 -11 5 8 -6 -20 -1 -20 -20 -20 -20 -5 -10 -20 -20 -11 8 9 -8 -20
-15 5 -17 -13 11 36 30 49 37 24 7 -20 -20 8 31 27 24 26 26 25 29 24 -6 -2 3 4 -4 -1 -20 -20 -20 -20 -20 -20 -2 7 15 -17 -20 -20 -20 -20 -20
2 -14 28 27 32 22 43 30 24 -5 17 10 -9 -4 16 27 22 22 23 17 31 25 -7 28 20 -20 -19 -3 -5 -20 -20 -20 -20 10 18 16 26 11 5 -20 -20 -20 -20
20 13 3 -10 6 -1 24 3 8 11 16 18 -17 26 12 22 20 20 21 21 16 28 24 18 12 -20 -20 -20 -20 -20 -20 -20 -20 -17 11 -20 -11 -16 -12 8 1 -20 -20
-5 12 17 11 6 -0 8 10 -16 4 6 22 28 18 11 21 10 11 22 20 1 -5 25 26 28 13 -18 -20 -20 -20 -20 -20 -20 -20 -20 -20 9 -7 -14 -20 -19 -15 -20
16 -11 11 6 17 -6 -4 -20 -18 22 6 13 2 24 17 28 29 20 1 21 26 8 21 9 27 9 15 33 26 -20 -20 -16 -20 -20 -20 -6 11 13 11 1 -13 -13 -20
-20 -20 -20 -20 -20 -20 -20 -20 -20 -11 5 -1 16 12 -4 18 26 25 28 -6 0 21 20 16 28 -12 -20 32 29 -8 -20 4 -20 13 -14 -6 25 23 22 17 19 12 -2
10 -6 -20 -20 -20 -20 -20 -20 -20 -20 -17 -20 -2 3 15 24 29 5 27 2 2 22 11 19 26 -3 -15 -14 5 -20 -5 -20 -20 -9 13 -10 15 21 21 25 28 29 6
6 -9 -20 -20 -20 -20 -20 -20 -20 -20 -20 -20 -20 -19 -8 17 17 -13 21 17 17 13 2 13 23 23 -2 -20 20 -6 -20 -20 -20 -20 -14 -8 -3 21 23 16 24 26 20
30 2 9 -20 -20 -20 -20 10 6 -20 -20 -20 -20 -20 -20 -10 6 22 14 23 25 25 25 24 21 4 11 26 13 12 -20 -20 -20 -20 -20 -20 -10 9 24 31 29 30 30
-19 4 -17 -20 -20 -20 -18 9 6 -20 -20 -20 -16 -6 -8 -7 4 2 3 5 26 22 32 25 23 22 1 22 25 -18 -20 -20 -20 -20 -20 -20 -20 2 5 17 31 31 26
2 16 -8 -20 -20 -20 -17 10 10 -20 -20 -20 -20 -19 -20 -20 -6 -12 -14 12 23 23 22 28 31 7 -19 8 13 -20 -20 -20 -20 -7 -18 -16 -7 -19 -12 6 30 31 37
-6 4 4 3 -20 -20 -20 2 -20 -20 -20 -20 -20 -20 -20 -20 14 -1 -20 7 17 17 9 35 31 13 13 5 -20 -20 -20 -20 -20 -1 -20 -20 -20 -17 -6 10 31 35 39
-7 6 9 4 5 8 1 7 -10 -9 -1 -14 -20 -20 -20 -17 8 -19 -20 -20 -1 6 -17 5 15 48 33 22 7 -20 -20 -20 -11 -20 -20 -20 -18 11 -10 2 14 33 36

GFSMA_prec_radar_150.txt.gz
Reflectivity
-20 -20 -20 -20 -20 -20 -20 -20 -20 -20 -20 -20 -20 -1 -2 -19 10 -8 -20 -20 -20 -20 -20 -20 -19 28 -15 -20 -20 -20 -20 -20 -1 -20 0 11 13 0 12 1 -6 -20 -20
-20 -4 -20 -20 -20 -20 -20 -20 -20 -20 -20 -20 -20 -9 8 1 9 0 -20 -20 -20 -20 -20 -20 -20 22 21 -20 -20 -20 -20 -6 -20 -20 5 11 12 7 6 -14 -20 -20 -20
-3 -20 -20 -20 -20 -20 -20 -20 -20 -20 -20 -20 -20 -18 -18 -19 3 -2 -20 -20 -20 -20 -20 -17 -19 -1 22 -3 -20 -20 -20 1 -20 -20 -14 10 6 13 -1 -20 -20 -20 -20
-20 -18 -20 -20 -20 -20 -20 -20 -20 -20 -20 -20 -20 -20 -20 -20 -20 1 -12 -20 -20 -20 -20 -20 -19 -20 10 -20 -4 -20 -20 -20 -4 -13 -20 -1 5 7 5 -20 -20 -20 -20
-20 -20 -20 -20 -20 -20 -20 -20 -20 -20 -20 -20 -20 -20 -20 -20 -10 -20 -11 -20 -20 -20 -20 -20 -20 -20 -20 -20 -8 -15 -20 -20 -20 -20 -20 -13 -13 5 -2 -20 -20 -20 -20
-20 -20 -20 -20 -20 -8 -20 -20 -20 -20 -20 -20 -20 -3 -20 -20 -20 -20 -1 -20 -20 -20 -20 -20 -20 -20 -1 -12 -20 -17 -9 6 -20 -20 -20 -20 -15 3 -3 -20 -20 -20 -20
-11 -20 -20 -20 -20 -20 -20 31 -20 -20 -20 -20 -20 -11 31 -20 -20 -20 -20 4 -20 -20 -20 -20 -20 -20 -20 28 -16 -20 -20 8 -0 8 -15 -20 -20 3 6 -20 -20 -20 -20
10 -6 -19 -20 -19 -2 -6 9 -15 -20 -20 -18 -20 -20 -20 -20 -20 -20 -20 -20 -18 -2 -18 -20 -20 -20 -20 -20 7 -9 -20 9 7 4 8 -20 -20 -20 3 -20 -20 -20 -20
-20 -17 -16 -16 -20 29 -1 -6 6 -20 -20 -20 -20 -20 -4 -12 -20 -20 -20 -20 -20 -20 -1 -19 -20 -20 -20 -20 -20 15 -16 -20 8 -13 -9 -20 -20 -20 -20 -20 -20 -20 -20
-20 -16 -20 -17 -12 -19 14 12 5 -4 -16 -20 25 -20 -20 -20 -20 -4 16 -20 -20 -9 -7 12 10 -20 2 -19 -20 -20 -7 17 -20 -11 -20 -20 -20 -20 -20 -20 -20 -20 -20
-20 -20 -17 -20 -19 -18 -16 15 3 9 -20 17 -3 38 31 -6 -19 21 37 25 13 -20 -20 -9 14 -11 4 -9 -20 -20 -20 -3 -9 -20 -20 6 -20 -20 -20 -20 -20 -20 -20
-20 35 20 4 -20 -5 -19 -17 -20 -15 -3 36 -9 28 28 26 -20 -1 13 18 20 17 -13 -20 -8 6 -5 -3 -20 -20 -16 -11 17 -6 -20 -20 -20 -20 -20 -20 -20 9 6
-5 12 5 13 -15 15 -13 -18 38 35 31 34 14 31 31 27 0 10 -6 16 23 18 24 -20 -20 -17 -12 -12 -20 -20 -20 -4 4 -20 -20 -20 -20 -5 -20 -20 -20 -1 -11
-20 -14 -15 15 -7 -10 -13 10 24 32 30 26 41 32 32 11 29 -20 7 24 31 25 22 -16 5 -20 -20 -20 -20 -20 -20 -20 -20 -20 -20 -20 -20 -3 11 10 10 -11 -20
9 26 19 -1 27 -6 -7 -15 24 2 32 42 37 31 32 -18 -20 25 -12 -20 19 18 47 26 16 -7 -20 -20 -20 -20 -20 -20 -20 -20 -20 -20 -20 -20 -9 18 17 14 1
5 14 -16 -16 -1 25 32 20 13 12 16 28 21 26 22 3 -20 -20 10 -10 26 28 21 27 19 -2 15 -20 -20 -20 -20 -20 -20 -20 -20 -20 -20 -20 -5 -20 -13 -10 -0
21 27 23 21 1 27 -5 14 10 25 17 7 -19 20 30 -3 -20 32 24 -20 -10 15 20 15 -20 41 33 13 -12 -20 -20 -20 -20 -20 -20 -20 -20 -20 -20 1 -12 -20 -20
32 30 25 5 16 30 30 29 26 23 21 27 31 25 26 27 33 -12 -3 -20 7 -2 2 -2 -18 28 9 44 13 -9 -20 -20 -20 -20 -20 -20 -20 -20 -7 -17 4 -12 -20
30 33 21 23 12 17 16 14 10 9 -6 24 9 -11 1 15 -15 14 7 15 -4 -20 11 16 -15 -4 7 26 30 6 16 13 1 15 10 11 -17 -5 -11 5 15 23 19
39 31 23 15 20 14 -16 2 -11 -16 -20 -20 -20 -20 -19 -14 28 22 0 5 7 20 25 21 26 16 -4 2 -1 4 17 22 22 4 17 14 13 -4 -12 16 -3 16 25
38 31 20 21 23 -16 -18 -20 -19 -20 -20 -20 -20 -20 -20 6 15 10 15 10 6 19 29 45 49 29 26 22 1 10 15 15 23 7 16 9 -5 -11 -6 11 20 22 15
32 9 17 19 0 -11 10 -19 -20 -20 -20 -20 -20 -20 -20 4 -4 -10 15 13 5 12 16 26 25 15 36 25 5 18 24 25 17 -19 11 4 -20 -15 -20 -8 19 27 20
27 32 34 21 23 9 7 -8 -5 -20 -20 -20 -20 -11 -16 -20 3 -20 -20 -19 -3 9 22 25 21 23 -5 -11 24 22 24 21 31 -9 -18 -20 -20 -20 -20 -16 11 12 20
11 17 21 25 20 7 7 3 -19 -20 -20 -20 -20 -15 -20 -20 -7 -7 -20 -20 -20 -20 -2 -4 18 24 22 13 23 17 22 17 33 2 -20 -20 -20 -20 -20 -20 8 -13 -4
8 -1 -8 11 6 -16 -19 -7 -14 -20 -20 -20 -11 -20 -20 -20 13 9 -20 -20 -20 -20 13 12 11 -1 12 19 17 22 33 29 -2 -8 -20 -4 -20 -20 -20 -20 -15 -17 -16
2 -19 -16 -8 12 -4 11 -16 -20 -18 -10 -20 -20 -20 17 2 10 -12 -20 -20 -20 -20 -20 -10 5 12 19 17 14 35 12 33 -12 -20 -20 -20 -20 -20 -20 -20 -20 -17 -20

GFSMA_prec_radar_153.txt.gz
Reflectivity
-20 -20 -20 -20 -20 -20 -20 -20 -20 -20 -20 -20 -20 -20 -20 -20 -20 -20 -20 -20 -20 10 -20 -20 -20 -20 9 -20 -20 -20 -20 -20 -20 -20 6 0 0 -8 3 5 4 -17 -20
-20 -20 -20 -20 -20 -20 -20 -20 -20 -20 -20 -20 -20 -20 -20 -20 -20 -20 -20 -20 -20 -20 -20 -20 -20 -20 -19 -7 -20 -20 -20 -20 -14 -20 -20 -3 12 3 15 4 -4 -20 -20
-20 -20 -20 -20 -20 -20 -20 -20 -20 -20 -20 -20 -20 -20 -20 -20 -20 -20 -20 -20 -20 -20 -20 -20 -20 8 3 8 -7 -20 -20 -20 -14 -20 -19 13 -0 13 12 3 -19 -20 -20
-19 -20 -20 -11 -20 -20 -17 -20 -20 -20 -20 -20 -20 -20 -20 -20 -20 -20 -20 -20 -20 -20 -20 -20 -20 -17 -3 9 -20 -20 -20 -20 -20 -20 -20 -3 4 17 3 -4 -20 -20 -20
20 9 -20 -20 -20 -20 -20 -20 -20 -20 -20 -20 -20 -20 -20 -20 -20 -20 -20 -20 -20 -20 -20 -20 -20 -20 -20 3 7 -20 -20 -20 -20 -20 -20 -20 13 -1 11 -10 -20 -20 -20
23 12 13 5 -20 15 -3 -20 -20 -20 -20 -20 -20 -17 8 -20 -20 -20 -20 -20 -20 -9 -20 -20 -20 -20 -20 -20 -19 11 5 -4 -8 -12 -20 -20 -2 -4 12 -1 -20 -20 -20
14 -7 -10 9 0 -18 -20 -20 -17 -20 -18 -20 -20 -20 -20 -20 -20 -20 -20 -20 -20 -20 -20 -20 -20 -20 -20 -20 -20 0 9 12 6 -13 -15 -20 -20 -5 6 3 -20 -20 -20
11 -9 -6 23 18 -7 5 10 -20 34 26 30 16 26 17 28 -20 -20 -20 -20 -20 -20 -20 -20 -20 -20 -20 -20 -20 -20 -7 -1 14 6 3 -20 -20 -20 3 -7 -20 -20 -20
-20 4 -19 -9 15 -15 -16 5 31 34 -16 7 28 -7 15 -20 -20 -20 -20 -20 -20 -20 -20 -20 -20 -20 -20 -20 -20 -20 -20 -14 -6 -9 -20 -20 -20 -20 -20 -13 -20 -20 -20
-20 20 -9 37 2 -20 -4 31 35 23 27 36 33 33 23 -20 -20 21 6 -13 -20 -20 -20 -20 -20 -20 -20 -20 -20 -20 -20 -20 3 -16 -20 -20 -20 -20 -20 -20 -20 -20 -20
-20 -20 -18 17 -20 36 15 -17 6 32 12 30 33 10 32 27 -8 -19 27 18 28 -3 -17 -0 12 -20 -20 -20 -20 -20 -20 -20 -20 -20 -20 0 -20 -20 -20 -20 -20 -20 -20
-20 -20 -15 -8 -20 -3 31 -20 -4 -4 6 25 31 33 35 31 27 16 40 38 18 -20 -19 24 21 -18 6 -20 4 -20 -20 -20 -20 -20 -11 -2 -20 -20 -20 -20 -20 -20 -20
-20 -20 -9 -9 -7 -20 -7 13 -20 -14 -16 18 8 26 31 30 26 42 31 -15 7 3 -1 32 22 -3 -7 -20 -20 -20 -20 -20 -20 -17 5 -8 -20 -20 -20 -20 -20 -20 -20
-5 -20 -18 -14 25 -19 -5 31 -5 24 -17 1 -20 32 30 31 32 23 31 27 -11 -1 24 30 30 31 27 -20 -20 -20 -20 -20 -20 -20 -20 -0 -20 -20 -20 -20 -19 -20 -20
0 3 5 -18 12 -20 -20 26 27 -2 -2 23 -20 26 -10 23 26 36 20 25 -20 -10 16 22 24 27 29 24 -20 -20 -20 -20 -20 -20 -20 -20 -20 -20 -20 -20 -20 -20 -20
4 21 24 7 -2 -20 -20 -20 -20 -18 -3 -11 -13 10 4 11 16 15 9 10 -0 10 -20 -14 8 22 33 28 25 5 -20 -20 -20 -20 -20 -20 -20 -20 -20 -20 -11 10 -4
10 11 17 -5 -9 19 -12 -15 -20 -20 -20 18 7 -18 -5 -11 -19 -19 -0 14 -18 23 5 10 -18 25 19 27 25 13 -20 17 -20 -20 -20 -20 -20 -20 -20 -20 -14 -1 -9
17 -1 20 32 -15 23 17 15 12 -11 13 30 27 10 7 4 -20 -20 -19 -20 11 20 15 -17 -15 0 3 32 7 14 10 -15 17 7 -20 -20 -20 -20 -20 -20 6 -11 4
15 4 25 21 -9 27 35 10 -0 -8 7 -19 -20 -16 -19 5 6 20 27 28 25 30 33 30 22 -16 25 13 4 -7 37 26 18 19 11 -20 -20 -20 5 12 -9 -7 5
31 31 29 35 19 25 33 29 21 24 16 14 12 12 12 17 4 -5 22 13 -14 -9 1 24 7 22 -20 -18 21 14 -15 19 37 23 31 3 -15 -6 13 4 -18 3 14
29 28 27 36 33 27 40 30 6 16 5 2 -1 -5 -3 12 10 16 9 -15 -10 20 17 22 25 19 -14 34 15 11 12 -16 32 36 -17 -5 -20 -15 -13 9 2 12 -8
33 30 23 31 32 25 34 28 26 -5 -18 -13 -20 -19 -20 -11 -8 12 16 11 13 1 -16 20 2 -15 10 19 34 40 38 29 5 21 39 19 40 4 -2 7 19 -16 11
22 30 28 34 26 26 34 27 26 22 18 16 -0 -20 -20 -20 0 -20 -20 -20 -20 -6 16 -4 -3 7 21 24 24 33 18 34 27 21 -15 19 28 19 -3 12 13 7 7
15 16 12 21 33 19 21 21 29 16 -4 -20 -20 -20 -20 -20 -7 -14 -20 -20 -20 -20 -19 -7 14 -3 17 8 5 37 33 22 18 26 10 20 33 37 31 -5 16 18 12
-20 -6 5 12 10 20 23 14 -7 -5 -20 -10 -20 -13 -18 -20 9 -2 -19 -20 -20 -20 4 13 -6 1 -6 26 7 0 -19 -20 20 8 24 10 36 18 13 -20 -12 14 -18
-20 -10 1 -6 -20 -16 9 20 8 -18 -15 -20 -20 -20 7 -15 -20 -20 -17 -20 -20 -20 -20 -20 -20 -20 5 -20 18 8 -18 5 -20 -16 -6 24 26 24 -20 -15 -4 -20 -20

GFSMA_prec_radar_159.txt.gz
Reflectivity
15 -8 -20 -20 -20 -20 -20 -20 -20 -20 -20 -20 -20 -20 -20 -20 -20 -20 -20 -20 -20 -20 -14 11 15 4 -7 -20 -20 -20 -20 -20 -20 -20 -20 -4 -1 -1 8 9 10 14 5
16 20 11 -20 -20 4 -2 -20 -20 -20 -20 -20 -20 -20 -20 -20 -20 -20 -20 -20 -20 -20 -20 -5 9 16 13 -5 -20 -20 -20 -20 -20 -20 -20 3 -2 8 6 7 13 15 5
32 23 14 9 -20 -20 -6 5 -20 -20 -20 -20 -20 -20 -20 -20 -20 -20 -20 -20 -20 -20 -20 -20 -18 1 11 10 -20 -20 -20 -20 -20 -20 -20 -20 13 11 7 11 11 10 2
-20 26 33 7 12 17 7 23 -19 -11 -20 -20 -20 -20 -20 -20 -20 -20 -20 -20 -20 -20 -20 -20 -20 -20 -4 15 4 0 -16 -20 -20 -20 -20 -20 4 15 14 15 15 4 5
-20 -20 23 16 9 19 11 11 12 2 7 -20 -19 21 -20 -20 -20 -20 -20 -20 -20 -20 -20 -20 -20 -20 -20 -20 -15 5 4 4 -13 -20 -20 -20 -20 8 12 15 15 7 4
-20 -20 -20 10 -12 12 17 13 32 14 -15 14 1 -6 -13 -17 -20 -20 -20 -20 -20 -20 -20 -20 -20 -20 -20 -20 -20 6 13 10 -1 4 -17 -20 -20 -18 14 14 4 10 -0
-20 -20 -20 -20 14 19 14 17 28 7 -17 7 30 22 -7 0 5 -12 -20 -20 -20 -20 -20 -20 -20 -20 -20 -20 -20 -20 8 16 9 8 16 -0 -20 -20 -16 17 6 9 6
-20 -20 -20 -13 -11 14 16 14 23 27 25 31 11 29 6 16 23 23 -5 -14 -4 -20 -4 -20 -20 -20 -20 -20 -20 -20 -15 15 16 7 -20 5 -20 -20 -20 12 7 8 1
-20 -20 -20 -20 -8 10 -8 9 -2 -12 25 13 28 28 30 6 -18 26 16 28 33 31 26 14 -5 17 -20 -20 -20 -20 -20 -20 -3 11 -15 -20 -20 -20 -20 -19 15 14 -20
-20 -20 -20 3 1 -20 -14 -18 -5 -13 13 14 28 28 29 30 24 20 12 26 36 29 30 30 25 30 25 -18 -20 -20 -20 -20 -20 -6 11 -20 -20 -20 -20 -20 -20 6 1
-20 -20 -20 -11 1 6 -19 0 6 -12 5 20 10 41 28 28 40 32 17 21 22 35 25 31 27 23 28 15 29 -7 -20 -20 -20 -20 -12 5 -20 -20 -20 -20 -20 -20 -20
-20 -20 -9 -5 -20 -19 -20 -2 -5 1 -1 5 20 27 26 37 37 44 39 20 22 31 30 26 8 22 25 20 24 2 14 22 -20 -20 -20 -4 -20 -20 -20 -20 -20 -20 -20
-4 0 -10 3 -20 -20 -20 -20 -7 14 -5 5 -2 25 4 35 39 26 40 42 19 8 30 38 35 22 20 14 20 17 18 20 -13 -20 -20 -20 -20 -20 -20 -20 -20 -20 -20
3 11 5 -9 -20 -20 -20 -6 -19 -16 -10 -2 8 23 4 -16 41 29 34 37 42 42 38 22 27 30 34 14 15 -18 6 17 23 14 -19 -20 -20 -20 -20 -20 -20 -20 -20
-8 7 9 -18 -14 1 -2 -20 -20 -20 15 6 9 -0 26 -20 13 31 23 35 27 24 10 11 10 7 3 6 -2 -20 -20 -20 -20 22 -8 -15 -20 -20 -20 -20 -18 -14 -20
-8 -6 5 -2 5 18 -6 2 -19 -20 -20 8 12 4 23 27 -20 26 12 28 24 20 1 -20 15 10 -16 -20 -20 -20 -16 -20 -20 -8 20 19 8 -16 -20 -20 10 8 -20
-15 -7 5 10 12 5 -19 -1 -4 -20 -20 -18 5 9 16 25 12 -20 -7 -14 7 20 -20 -13 12 7 -19 -20 -20 -19 -20 5 12 13 17 19 18 4 14 10 -7 30 -20
11 9 11 10 15 3 -2 17 14 -20 -20 -6 -16 20 6 24 -17 -7 2 -18 -13 0 -14 -14 5 7 -16 -20 -20 3 -20 21 26 18 24 16 16 -19 15 12 -2 -7 -20
9 9 14 15 16 19 22 20 16 1 14 27 10 26 6 6 -12 21 9 9 6 -10 -2 9 -19 -16 -19 -20 -20 -20 -20 -20 -20 -17 23 23 34 18 18 16 14 14 1
4 17 21 25 25 27 28 21 30 36 36 26 22 29 18 22 20 -12 15 14 14 12 12 10 17 -0 -20 -16 -20 -11 -20 -20 -18 -16 4 14 21 17 21 15 12 20 15
-15 -3 16 27 27 30 24 11 10 27 29 37 33 30 33 28 19 23 10 22 -2 -10 -1 16 -7 15 5 14 -4 -10 11 15 -17 1 5 20 19 13 1 13 16 15 15
-2 -20 1 6 16 14 15 10 7 14 18 18 36 36 33 28 27 27 28 22 24 -6 -20 6 3 14 -12 -20 -15 16 13 16 14 13 22 28 14 15 16 32 -9 13 0
-20 -20 -3 3 1 9 10 12 12 11 18 21 20 16 19 31 32 27 24 26 6 14 4 -15 -20 -20 -20 -17 12 -4 -5 18 6 -2 25 16 -2 11 21 25 14 23 38
-16 -20 -11 -3 5 -2 2 18 7 12 18 17 27 30 27 24 21 21 21 24 -6 -20 -19 -20 -20 -20 -20 -20 -20 -16 2 -11 -9 16 -3 20 -11 -10 -20 -20 -18 16 26
-14 -20 -20 -20 -6 3 9 7 14 3 14 7 12 27 26 28 25 18 6 -17 -20 -20 -16 -20 -20 -17 -18 0 1 3 -6 -20 2 15 -10 -9 -15 -16 18 17 18 6 24
-1 -20 1 -20 -20 -20 -0 5 1 1 0 -5 15 9 26 28 30 30 24 9 -20 -20 -20 -20 -20 -1 9 -13 -1 2 -20 -14 -7 6 -20 -3 8 13 9 20 33 26 24